[[{"header":{"parameterUnit":"m.s-1","parameterCategory":2,"la1":30.2992,"la2":30.254,"lo1":-89.0895,"lo2":-89.0443,"dy":0.0025,"dx":0.0025,"nx":19,"ny":19,"refTime":"2026-05-10T03:00:00:Z","depth":"0","parameterNumber":2,"parameterNumberName":"U-component_of_CURRENTS"},"data":[0,0,0,-0.2736,-0.2736,-0.2689,-0.2689,-0.2598,-0.2597,0,0,0,0,0,0,0,0,0,0,0,-0.2743,-0.2743,-0.2736,-0.2736,-0.2689,-0.2689,-0.2598,-0.2597,0,0,0,0,0,0,0,0,0,0,0,-0.2743,-0.2743,-0.2743,-0.2736,-0.2689,-0.2689,-0.2598,-0.2635,0,0,0,0,0,0,0,0,0,0,-0.2681,-0.2685,-0.2743,-0.2743,-0.2736,-0.2689,-0.2688,-0.2636,-0.2632,-0.2619,0,-0.2624,0,-0.2624,-0.2593,-0.2593,0,0,0,-0.2709,-0.2689,-0.27,-0.2743,-0.2736,-0.269,-0.2703,-0.2634,-0.2629,-0.2613,-0.2623,-0.262,-0.2623,-0.2593,-0.2592,-0.2539,-0.2538,0,0,-0.2711,-0.2707,-0.2703,-0.2698,-0.274,-0.2704,-0.2702,-0.2631,-0.2619,-0.2623,-0.2618,-0.2621,-0.2592,-0.2592,-0.2539,-0.2539,0,0,0,-0.2737,-0.2708,-0.272,-0.2701,-0.2704,-0.2704,-0.27,-0.2621,-0.2632,-0.2617,-0.262,-0.2592,-0.2591,-0.2539,-0.2539,-0.2594,0,0,0,-0.2737,-0.2726,-0.2722,-0.2714,-0.2706,-0.2663,-0.2691,-0.2637,-0.2629,-0.2621,-0.2592,-0.259,-0.2539,-0.2539,-0.2592,-0.2638,0,0,0,-0.2742,-0.2726,-0.2731,-0.2715,-0.2711,-0.2665,-0.2669,-0.2635,-0.2633,-0.2593,-0.259,-0.2539,-0.2539,-0.2591,-0.2635,-0.266,0,0,0,-0.2724,-0.2731,-0.273,-0.273,-0.2712,-0.2701,-0.2669,-0.2648,-0.2619,-0.2591,-0.2539,-0.2539,-0.2591,-0.2633,-0.2658,-0.2746,-0.2761,0,0,-0.2726,-0.273,-0.2731,-0.2732,-0.2732,-0.2705,-0.269,-0.2645,-0.2606,-0.2555,-0.2554,-0.2593,-0.2635,-0.2659,-0.273,-0.2747,0,0,0,-0.2728,-0.2734,-0.2734,-0.273,-0.2722,-0.2722,-0.2675,-0.2652,-0.2606,-0.2593,-0.2572,-0.2596,-0.2611,-0.2658,-0.2671,-0.2617,-0.2537,-0.2537,-0.2537,-0.2752,-0.2741,-0.2746,-0.2742,-0.2735,-0.272,-0.2712,-0.2669,-0.2624,-0.2612,-0.2625,-0.2662,-0.2712,-0.2723,-0.2665,-0.2594,-0.2594,-0.2594,-0.2594,-0.2786,-0.2769,-0.2772,-0.2774,-0.277,-0.2757,-0.2735,-0.2715,-0.2696,-0.2649,-0.266,-0.2694,-0.2741,-0.2673,-0.2598,-0.2597,-0.2597,-0.2596,-0.2596,-0.2789,-0.2768,-0.2793,-0.2809,-0.2813,-0.2804,-0.2838,-0.2801,-0.2751,-0.277,-0.2805,-0.2805,-0.2761,-0.2767,-0.2768,-0.2768,-0.2768,-0.2769,-0.2769,-0.2757,-0.2775,-0.2824,-0.2843,-0.2874,-0.2893,-0.2903,-0.2912,-0.291,-0.2885,-0.2885,-0.2771,-0.2715,-0.2726,-0.2773,-0.2773,-0.2772,-0.2772,-0.2771,-0.2679,-0.2745,-0.283,-0.2887,-0.2965,-0.2954,-0.3023,-0.3075,-0.3088,-0.31,-0.2947,-0.2937,-0.2932,-0.2922,-0.2937,-0.3036,-0.3036,-0.3036,-0.3036,-0.2646,-0.2676,-0.2829,-0.2939,-0.3021,-0.2986,-0.3028,-0.309,-0.31,-0.3055,-0.3022,-0.2989,-0.298,-0.2973,-0.2962,-0.2975,-0.3082,-0.3081,-0.3081,-0.261,-0.2689,-0.2775,-0.2917,-0.3024,-0.2976,-0.2895,-0.2913,-0.3001,-0.3071,-0.2928,-0.2926,-0.2859,-0.2851,-0.2822,-0.2811,-0.2825,0,0]},{"header":{"parameterUnit":"m.s-1","parameterCategory":2,"la1":30.2992,"la2":30.254,"lo1":-89.0895,"lo2":-89.0443,"dy":0.0025,"dx":0.0025,"nx":19,"ny":19,"refTime":"2026-05-10T03:00:00:Z","depth":"0","parameterNumber":3,"parameterNumberName":"V-component_of_CURRENTS"},"data":[0,0,0,-0.05,-0.05,-0.0427,-0.0426,-0.0246,-0.0245,0,0,0,0,0,0,0,0,0,0,0,-0.0507,-0.0507,-0.05,-0.05,-0.0427,-0.0426,-0.0247,-0.0245,0,0,0,0,0,0,0,0,0,0,0,-0.0507,-0.0507,-0.0507,-0.05,-0.0428,-0.0426,-0.0247,-0.0313,0,0,0,0,0,0,0,0,0,0,-0.0389,-0.0429,-0.0507,-0.0507,-0.05,-0.0428,-0.0426,-0.0316,-0.0309,-0.0268,0,-0.0276,0,-0.0282,-0.0235,-0.0235,0,0,0,-0.0455,-0.0436,-0.0424,-0.0507,-0.0499,-0.0428,-0.0447,-0.0312,-0.0303,-0.0258,-0.0274,-0.0268,-0.0279,-0.0234,-0.0233,-0.0101,-0.01,0,0,-0.0459,-0.0477,-0.043,-0.0419,-0.0504,-0.045,-0.0446,-0.0307,-0.0302,-0.0273,-0.0265,-0.0276,-0.0233,-0.0232,-0.0101,-0.01,0,0,0,-0.0501,-0.048,-0.0472,-0.0425,-0.0434,-0.0449,-0.0444,-0.0307,-0.0308,-0.0263,-0.0274,-0.0232,-0.0231,-0.0101,-0.0101,-0.0138,0,0,0,-0.0501,-0.0508,-0.0474,-0.0482,-0.0438,-0.0385,-0.0447,-0.0316,-0.0302,-0.0275,-0.0232,-0.0229,-0.0102,-0.0101,-0.0138,-0.0165,0,0,0,-0.0506,-0.0509,-0.0509,-0.0483,-0.0475,-0.0388,-0.0378,-0.0313,-0.031,-0.0235,-0.0229,-0.0102,-0.0101,-0.0138,-0.0163,-0.0159,0,0,0,-0.0512,-0.0524,-0.051,-0.0507,-0.0477,-0.0418,-0.0379,-0.032,-0.0259,-0.0232,-0.0102,-0.0101,-0.0137,-0.0163,-0.0158,-0.0183,-0.0187,0,0,-0.0531,-0.0527,-0.052,-0.0506,-0.0474,-0.0424,-0.036,-0.0274,-0.0229,-0.0134,-0.0131,-0.0138,-0.0163,-0.0158,-0.0136,-0.0141,0,0,0,-0.0527,-0.053,-0.0514,-0.0491,-0.0441,-0.0386,-0.0306,-0.0266,-0.0183,-0.02,-0.011,-0.0125,-0.0121,-0.0134,-0.0138,0.0068,-0.0097,-0.0097,-0.0097,-0.06,-0.0551,-0.0536,-0.0476,-0.043,-0.0343,-0.029,-0.0217,-0.0172,-0.0146,-0.0135,-0.013,-0.0143,-0.0146,0.0067,-0.0105,-0.0105,-0.0105,-0.0105,-0.0646,-0.0641,-0.0559,-0.0533,-0.0451,-0.0391,-0.0271,-0.0234,-0.0157,-0.0134,-0.0128,-0.0147,-0.0153,0.0076,-0.0107,-0.0107,-0.0107,-0.0107,-0.0106,-0.0713,-0.0703,-0.0672,-0.0621,-0.0554,-0.0451,-0.0399,-0.0297,-0.0204,-0.0186,-0.0179,-0.0179,0.0005,-0.0178,-0.0178,-0.0179,-0.0179,-0.0179,-0.0179,-0.0812,-0.0771,-0.0794,-0.072,-0.0703,-0.0635,-0.0481,-0.0417,-0.0295,-0.0221,-0.0221,0.0041,-0.0152,-0.017,-0.018,-0.018,-0.018,-0.018,-0.018,-0.0911,-0.0906,-0.0954,-0.0954,-0.0896,-0.087,-0.0692,-0.0528,-0.0425,-0.0372,0.0006,-0.0226,-0.0216,-0.0212,-0.023,-0.0255,-0.0255,-0.0255,-0.0255,-0.1008,-0.0995,-0.1113,-0.115,-0.1121,-0.0993,-0.0911,-0.0651,-0.024,-0.0005,0.0094,0.0139,0.0133,0.0168,0.0164,0.0156,0.023,0.0231,0.0232,-0.1096,-0.1127,-0.1247,-0.1266,-0.1234,-0.1135,-0.1032,-0.0675,-0.0026,0.0277,0.0392,0.0372,0.0464,0.0437,0.0512,0.0489,0.0481,0,0]}],[{"header":{"parameterUnit":"m.s-1","parameterCategory":2,"la1":30.2992,"la2":30.254,"lo1":-89.0895,"lo2":-89.0443,"dy":0.0025,"dx":0.0025,"nx":19,"ny":19,"refTime":"2026-05-10T03:00:00:Z","depth":"2","parameterNumber":2,"parameterNumberName":"U-component_of_CURRENTS"},"data":[0,0,0,-0.1337,-0.1337,-0.1416,-0.1417,-0.1456,-0.1455,0,0,0,0,0,0,0,0,0,0,0,-0.1302,-0.1301,-0.1338,-0.1337,-0.1416,-0.1417,-0.1456,-0.1455,0,0,0,0,0,0,0,0,0,0,0,-0.1303,-0.1301,-0.1299,-0.1337,-0.1416,-0.1417,-0.1456,-0.1428,0,0,0,0,0,0,0,0,0,0,-0.1366,-0.1422,-0.1301,-0.1299,-0.1337,-0.1415,-0.1417,-0.1428,-0.143,-0.1382,0,-0.1339,0,-0.1367,-0.145,-0.145,0,0,0,-0.1404,-0.1422,-0.1323,-0.1299,-0.1337,-0.1415,-0.1399,-0.143,-0.1432,-0.1383,-0.134,-0.1342,-0.1368,-0.145,-0.145,-0.1388,-0.1388,0,0,-0.1399,-0.1445,-0.1322,-0.1322,-0.1282,-0.1396,-0.1401,-0.1433,-0.147,-0.134,-0.1343,-0.1368,-0.145,-0.1449,-0.1388,-0.1388,0,0,0,-0.1342,-0.1443,-0.1351,-0.132,-0.1321,-0.1397,-0.1402,-0.1472,-0.1404,-0.1344,-0.1369,-0.1449,-0.1448,-0.1389,-0.1388,-0.1494,0,0,0,-0.1343,-0.1402,-0.1347,-0.1395,-0.1319,-0.1432,-0.1442,-0.1404,-0.1408,-0.1368,-0.1449,-0.1447,-0.1389,-0.1389,-0.1492,-0.1544,0,0,0,-0.1312,-0.1405,-0.1362,-0.1393,-0.1385,-0.1431,-0.1377,-0.1408,-0.1419,-0.145,-0.1447,-0.1389,-0.1389,-0.1489,-0.1539,-0.1592,0,0,0,-0.1429,-0.1417,-0.1364,-0.1414,-0.1382,-0.1385,-0.1378,-0.1444,-0.1477,-0.1449,-0.1389,-0.1388,-0.1489,-0.1536,-0.1589,-0.1662,-0.1683,0,0,-0.1477,-0.1427,-0.1459,-0.141,-0.1433,-0.1384,-0.1451,-0.1486,-0.1449,-0.1385,-0.1385,-0.1493,-0.1539,-0.1591,-0.1646,-0.1668,0,0,0,-0.1521,-0.1502,-0.1508,-0.1527,-0.1499,-0.1513,-0.1507,-0.1473,-0.1483,-0.1449,-0.1457,-0.1482,-0.1513,-0.1548,-0.1565,-0.1387,-0.1387,-0.1387,-0.1387,-0.1507,-0.1548,-0.1598,-0.1603,-0.1629,-0.1601,-0.1607,-0.1548,-0.1495,-0.1504,-0.1542,-0.1618,-0.1655,-0.1669,-0.1507,-0.1507,-0.1507,-0.1508,-0.1508,-0.1513,-0.1567,-0.1634,-0.17,-0.1708,-0.1743,-0.1708,-0.168,-0.1639,-0.1582,-0.1608,-0.1624,-0.1694,-0.1516,-0.1514,-0.1513,-0.1512,-0.1512,-0.1511,-0.1501,-0.1554,-0.1594,-0.17,-0.1784,-0.182,-0.1868,-0.1809,-0.1775,-0.1779,-0.1808,-0.1806,-0.1709,-0.1802,-0.1802,-0.1803,-0.1803,-0.1803,-0.1804,-0.1495,-0.1545,-0.1534,-0.1651,-0.1756,-0.1869,-0.1938,-0.1969,-0.1983,-0.1926,-0.1925,-0.1717,-0.1707,-0.1723,-0.1811,-0.181,-0.1809,-0.1808,-0.1807,-0.1469,-0.1475,-0.1541,-0.1587,-0.1752,-0.1824,-0.1957,-0.2105,-0.2139,-0.2166,-0.1997,-0.199,-0.1965,-0.195,-0.197,-0.2116,-0.2116,-0.2116,-0.2116,-0.1465,-0.1427,-0.1548,-0.1593,-0.1728,-0.1818,-0.1909,-0.1893,-0.1944,-0.1872,-0.188,-0.1801,-0.1798,-0.1754,-0.1743,-0.1755,-0.1845,-0.1843,-0.1842,-0.1389,-0.152,-0.1547,-0.1596,-0.1752,-0.1809,-0.1779,-0.1674,-0.1698,-0.1811,-0.1627,-0.2138,-0.2046,-0.203,-0.1978,-0.1955,-0.198,0,0]},{"header":{"parameterUnit":"m.s-1","parameterCategory":2,"la1":30.2992,"la2":30.254,"lo1":-89.0895,"lo2":-89.0443,"dy":0.0025,"dx":0.0025,"nx":19,"ny":19,"refTime":"2026-05-10T03:00:00:Z","depth":"2","parameterNumber":3,"parameterNumberName":"V-component_of_CURRENTS"},"data":[0,0,0,-0.0195,-0.0195,-0.0194,-0.0194,-0.0105,-0.0104,0,0,0,0,0,0,0,0,0,0,0,-0.0184,-0.0184,-0.0195,-0.0195,-0.0194,-0.0194,-0.0105,-0.0104,0,0,0,0,0,0,0,0,0,0,0,-0.0184,-0.0184,-0.0183,-0.0195,-0.0194,-0.0194,-0.0106,-0.0128,0,0,0,0,0,0,0,0,0,0,-0.014,-0.0181,-0.0184,-0.0183,-0.0195,-0.0194,-0.0194,-0.013,-0.0127,-0.0081,0,-0.0073,0,-0.0088,-0.0096,-0.0096,0,0,0,-0.0195,-0.0185,-0.0146,-0.0183,-0.0195,-0.0194,-0.0194,-0.0129,-0.0125,-0.0076,-0.0072,-0.007,-0.0087,-0.0095,-0.0095,-0.003,-0.003,0,0,-0.0195,-0.022,-0.0149,-0.0143,-0.0182,-0.0194,-0.0194,-0.0128,-0.0138,-0.0072,-0.0068,-0.0085,-0.0095,-0.0094,-0.003,-0.003,0,0,0,-0.0196,-0.022,-0.0186,-0.0146,-0.0154,-0.0194,-0.0194,-0.0141,-0.0119,-0.0067,-0.0084,-0.0094,-0.0092,-0.003,-0.003,-0.0058,0,0,0,-0.0196,-0.0219,-0.0186,-0.0206,-0.0156,-0.017,-0.021,-0.0123,-0.0117,-0.0085,-0.0094,-0.0091,-0.003,-0.003,-0.0057,-0.0082,0,0,0,-0.0187,-0.0221,-0.0207,-0.0206,-0.0203,-0.0172,-0.0148,-0.0123,-0.0127,-0.0096,-0.0091,-0.003,-0.003,-0.0056,-0.0079,-0.0079,0,0,0,-0.0228,-0.0241,-0.0208,-0.0222,-0.0202,-0.0188,-0.0149,-0.0146,-0.0125,-0.0093,-0.003,-0.003,-0.0056,-0.0078,-0.0078,-0.0037,-0.0039,0,0,-0.0268,-0.0247,-0.0249,-0.0219,-0.0214,-0.0189,-0.0192,-0.0147,-0.0113,-0.0045,-0.0044,-0.0058,-0.0079,-0.0079,-0.0062,-0.0063,0,0,0,-0.0277,-0.0275,-0.0267,-0.0255,-0.0226,-0.0213,-0.018,-0.0152,-0.0108,-0.0102,-0.0058,-0.0072,-0.007,-0.0043,-0.0044,-0.0032,-0.0032,-0.0032,-0.0032,-0.0375,-0.033,-0.034,-0.0286,-0.0269,-0.0228,-0.0208,-0.0163,-0.012,-0.011,-0.0095,-0.0117,-0.0088,-0.0088,-0.0088,-0.0088,-0.0088,-0.0088,-0.0088,-0.0443,-0.0441,-0.0386,-0.038,-0.0324,-0.0314,-0.0229,-0.0197,-0.0147,-0.0121,-0.0117,-0.0075,-0.0091,-0.0091,-0.009,-0.009,-0.009,-0.0089,-0.0089,-0.0512,-0.0503,-0.0496,-0.0483,-0.0452,-0.038,-0.0349,-0.0268,-0.0188,-0.0176,-0.0127,-0.0126,-0.0131,-0.0167,-0.0167,-0.0167,-0.0167,-0.0167,-0.0167,-0.0592,-0.0578,-0.0613,-0.0581,-0.0593,-0.0549,-0.0426,-0.0366,-0.0235,-0.0163,-0.0162,-0.0143,-0.014,-0.0136,-0.0169,-0.0169,-0.0168,-0.0168,-0.0168,-0.0648,-0.0672,-0.0745,-0.0774,-0.0776,-0.0766,-0.0614,-0.0416,-0.0319,-0.0245,-0.0143,-0.0143,-0.0129,-0.0127,-0.0122,-0.0149,-0.0149,-0.0149,-0.0149,-0.0716,-0.0714,-0.0878,-0.0957,-0.0974,-0.0878,-0.0775,-0.0546,-0.0309,-0.0198,-0.0197,-0.0177,-0.0175,-0.0163,-0.016,-0.0155,-0.0192,-0.0192,-0.0193,-0.0766,-0.0827,-0.0967,-0.1047,-0.1079,-0.0991,-0.0871,-0.0587,-0.026,-0.02,-0.0264,-0.0141,-0.0103,-0.0104,-0.0077,-0.0076,-0.0065,0,0]}],[{"header":{"parameterUnit":"m.s-1","parameterCategory":2,"la1":30.2992,"la2":30.254,"lo1":-89.0895,"lo2":-89.0443,"dy":0.0025,"dx":0.0025,"nx":19,"ny":19,"refTime":"2026-05-10T03:00:00:Z","depth":"4","parameterNumber":2,"parameterNumberName":"U-component_of_CURRENTS"},"data":[0,0,0,-0.071,-0.0715,-0.0966,-0.0967,-0.1333,-0.1336,0,0,0,0,0,0,0,0,0,0,0,-0.0641,-0.0643,-0.071,-0.0715,-0.0966,-0.0967,-0.1333,-0.1336,0,0,0,0,0,0,0,0,0,0,0,-0.064,-0.0642,-0.0645,-0.0716,-0.0966,-0.0967,-0.1332,-0.1136,0,0,0,0,0,0,0,0,0,0,-0.0888,-0.0827,-0.0642,-0.0645,-0.0718,-0.0965,-0.0968,-0.1126,-0.1148,-0.1227,0,-0.1275,0,-0.1302,-0.136,-0.1362,0,0,0,-0.0733,-0.0809,-0.0856,-0.0645,-0.072,-0.0965,-0.0858,-0.1138,-0.1163,-0.1256,-0.128,-0.1293,-0.1308,-0.1363,-0.1364,-0.17,-0.1701,0,0,-0.0719,-0.071,-0.0839,-0.0872,-0.0799,-0.085,-0.0865,-0.1153,-0.1198,-0.1281,-0.1301,-0.1314,-0.1365,-0.1368,-0.17,-0.1701,0,0,0,-0.0667,-0.0701,-0.0741,-0.0857,-0.0893,-0.0856,-0.0875,-0.1186,-0.1194,-0.1305,-0.1319,-0.1367,-0.1372,-0.1698,-0.17,-0.1634,0,0,0,-0.066,-0.0669,-0.0734,-0.0735,-0.0887,-0.104,-0.0902,-0.1175,-0.1207,-0.1317,-0.1367,-0.1375,-0.1697,-0.1699,-0.1634,-0.162,0,0,0,-0.0627,-0.0666,-0.0693,-0.0733,-0.0829,-0.1035,-0.1062,-0.1182,-0.1215,-0.1362,-0.1376,-0.1697,-0.1699,-0.1633,-0.162,-0.1612,0,0,0,-0.0609,-0.0652,-0.0694,-0.075,-0.0827,-0.096,-0.106,-0.1227,-0.1355,-0.1369,-0.1697,-0.17,-0.1633,-0.1619,-0.1612,-0.1311,0,0,0,-0.0634,-0.0656,-0.0678,-0.0719,-0.0777,-0.0926,-0.1095,-0.1323,-0.1415,-0.1607,-0.1615,-0.1634,-0.162,-0.1612,-0.1457,0,0,0,0,-0.0664,-0.0684,-0.0704,-0.0766,-0.0865,-0.1039,-0.1242,-0.1355,-0.1554,-0.1498,-0.1702,-0.1697,-0.1692,-0.1521,-0.1711,-0.1711,-0.1711,-0.1711,-0.171,-0.0675,-0.0696,-0.0756,-0.0819,-0.0939,-0.1168,-0.1318,-0.1529,-0.1586,-0.1672,-0.1691,-0.1712,-0.1534,-0.1742,-0.1742,-0.1742,-0.1741,-0.1741,-0.1741,-0.0645,-0.0674,-0.0802,-0.0877,-0.1067,-0.1255,-0.1489,-0.1562,-0.1693,-0.1725,-0.1722,-0.1526,-0.1736,-0.1737,-0.1738,-0.1739,-0.1739,-0.1739,-0.174,-0.0566,-0.0608,-0.0691,-0.0839,-0.1095,-0.1315,-0.1407,-0.1591,-0.1666,-0.167,-0.1484,-0.169,-0.1638,-0.1646,-0.1646,-0.1646,-0.1646,-0.1646,-0.1646,-0.046,-0.0548,-0.0586,-0.0802,-0.0905,-0.1092,-0.1334,-0.1301,-0.1439,-0.1412,-0.1642,-0.1681,-0.1684,-0.1637,-0.1645,-0.1645,-0.1645,-0.1645,-0.1645,-0.0344,-0.0388,-0.0388,-0.0452,-0.0635,-0.0764,-0.0975,-0.1025,-0.0989,-0.0949,-0.1283,-0.1301,-0.13,-0.1313,-0.1251,-0.1145,-0.1141,-0.1137,0,-0.0262,-0.0282,-0.0254,-0.0244,-0.0289,-0.0564,-0.0433,-0.0504,-0.0768,-0.0869,-0.0938,-0.132,-0.1333,-0.1332,-0.1337,-0.1263,0,0,0,-0.0193,-0.0201,-0.0137,-0.0153,-0.0187,-0.032,-0.045,-0.0475,-0.0809,-0.0594,-0.104,-0.1065,-0.1055,-0.1641,-0.1685,-0.1688,-0.1615,0,0]},{"header":{"parameterUnit":"m.s-1","parameterCategory":2,"la1":30.2992,"la2":30.254,"lo1":-89.0895,"lo2":-89.0443,"dy":0.0025,"dx":0.0025,"nx":19,"ny":19,"refTime":"2026-05-10T03:00:00:Z","depth":"4","parameterNumber":3,"parameterNumberName":"V-component_of_CURRENTS"},"data":[0,0,0,-0.0315,-0.0316,-0.0356,-0.0356,-0.0329,-0.0329,0,0,0,0,0,0,0,0,0,0,0,-0.0281,-0.0281,-0.0315,-0.0316,-0.0355,-0.0356,-0.033,-0.0329,0,0,0,0,0,0,0,0,0,0,0,-0.0281,-0.0281,-0.0281,-0.0316,-0.0355,-0.0356,-0.033,-0.0319,0,0,0,0,0,0,0,0,0,0,-0.0291,-0.0279,-0.0281,-0.0281,-0.0316,-0.0355,-0.0356,-0.032,-0.032,-0.0289,0,-0.028,0,-0.031,-0.0325,-0.0325,0,0,0,-0.0318,-0.0279,-0.0283,-0.0281,-0.0317,-0.0355,-0.0338,-0.032,-0.032,-0.0289,-0.028,-0.028,-0.0309,-0.0325,-0.0325,-0.0288,-0.0288,0,0,-0.0315,-0.0298,-0.0283,-0.0282,-0.0305,-0.0337,-0.0339,-0.0321,-0.0314,-0.028,-0.0281,-0.0309,-0.0325,-0.0324,-0.0288,-0.0288,0,0,0,-0.0308,-0.0296,-0.0302,-0.0282,-0.0299,-0.0338,-0.0341,-0.0315,-0.0314,-0.0281,-0.0308,-0.0324,-0.0324,-0.0288,-0.0288,-0.0328,0,0,0,-0.0307,-0.0293,-0.0301,-0.0292,-0.0299,-0.0322,-0.0335,-0.0315,-0.0315,-0.0309,-0.0324,-0.0323,-0.0288,-0.0288,-0.0327,-0.0348,0,0,0,-0.0283,-0.0291,-0.0287,-0.0291,-0.031,-0.0323,-0.0322,-0.0316,-0.0332,-0.0325,-0.0323,-0.0288,-0.0288,-0.0326,-0.0345,-0.0339,0,0,0,-0.0277,-0.0287,-0.0286,-0.0317,-0.0309,-0.0386,-0.0323,-0.0351,-0.0351,-0.0324,-0.0288,-0.0288,-0.0326,-0.0344,-0.0338,-0.0352,0,0,0,-0.0295,-0.0288,-0.0313,-0.0315,-0.0388,-0.0382,-0.046,-0.0407,-0.0335,-0.0288,-0.0288,-0.0327,-0.0345,-0.0339,-0.0352,0,0,0,0,-0.0326,-0.0338,-0.0361,-0.04,-0.0446,-0.0493,-0.0481,-0.0441,-0.0357,-0.0334,-0.0316,-0.0326,-0.032,-0.0326,-0.0288,-0.0288,-0.0288,-0.0288,-0.0288,-0.0327,-0.037,-0.0434,-0.0492,-0.0536,-0.0567,-0.0568,-0.0503,-0.043,-0.0373,-0.035,-0.0362,-0.037,-0.0338,-0.0339,-0.0339,-0.0339,-0.0339,-0.0339,-0.0372,-0.0421,-0.0487,-0.0558,-0.0613,-0.0655,-0.0625,-0.0553,-0.0458,-0.039,-0.0381,-0.0358,-0.0343,-0.0342,-0.0341,-0.0341,-0.0341,-0.034,-0.034,-0.0373,-0.041,-0.0461,-0.0576,-0.0649,-0.0677,-0.0678,-0.0597,-0.0473,-0.0456,-0.0406,-0.038,-0.0385,-0.0415,-0.0415,-0.0415,-0.0415,-0.0415,-0.0415,-0.0345,-0.0413,-0.0472,-0.0595,-0.0648,-0.0684,-0.0673,-0.0632,-0.0531,-0.0451,-0.0432,-0.0387,-0.0385,-0.0388,-0.0416,-0.0416,-0.0416,-0.0416,-0.0416,-0.034,-0.0362,-0.0448,-0.0513,-0.0659,-0.0701,-0.071,-0.0656,-0.0601,-0.0536,-0.0452,-0.045,-0.0432,-0.0428,-0.0433,-0.0474,-0.0475,-0.0475,0,-0.0316,-0.0341,-0.0436,-0.0537,-0.0642,-0.0717,-0.0675,-0.0664,-0.0567,-0.0528,-0.0574,-0.0481,-0.0478,-0.046,-0.0457,-0.0464,0,0,0,-0.0305,-0.0333,-0.0392,-0.052,-0.0647,-0.0662,-0.0672,-0.0649,-0.0559,-0.058,-0.0482,-0.048,-0.0544,-0.0419,-0.0386,-0.0383,-0.0386,0,0]}]]